Вернуться в каталог

STARLINK-31826

АктивенСвязьVLEO
NORAD 59768·PAYLOAD·🇺🇸 United States

Запущен May 14, 2024 с Vandenberg Space Force Base

Loading…

Ближайшие Пролёты (ближайшие 24 часа)

TLE

СвежийSource: CelesTrak SupGP

Эпоха: Sep 15, 2026, 02:47 UTC

1 59768C 24091R   26258.11645833  .00048610  00000+0  44136-3 0  2582
2 59768  53.1434 204.9015 0010609  61.8793 319.7323 15.67236759    18

Отслеживайте STARLINK-31826 в реальном времени с AllMySat

Download on the App Store